Location: Krakow
(50.0830°N, 19.9170°E)
Time: 14:39:09
(UTC+02:00)

Tiros 1 - Pass Details

Date: 31 January 2023
Orbit: 627 x 662 km, 48.4° (Epoch: 01 April)

Event Time Altitude Azimuth Distance (km) Brightness Sun altitude
Exits shadow 05:31:34 30° 262° (W) 1,148 7.9 -16.8°
Maximum altitude 05:33:39 57° 196° (SSW) 759 7.4 -16.5°
Drops below altitude 10° 05:38:17 10° 118° (ESE) 2,051 10.9 -15.7°
Sets 05:40:40 0° 115° (ESE) 2,966 12.1 -15.4°
